Tracking 17855 objects as of 25-September-2016
HD Live streaming from Space Station
objects crossing your sky now

CZ-4 DEB

Track CZ-4 DEB now!
10-day predictions


NORAD ID: 26650
Int'l Code: 1999-057LG
Perigee: 633.1 km
Apogee: 648.0 km
Inclination: 98.6 °
Period: 97.4 minutes
Semi major axis: 7011 km
RCS: 0.0056 m2 (small)
Launch date: October 14, 1999
Source: People's Republic of China (PRC)
Launch site: Taiyaun Space Center, China (TSC)

Note: This is SATELLITE DEBRIS
Your satellite tracking list
Your tracking list is empty





NASA's NSSDC Master Catalog

Two Line Element Set (TLE):
1 26650U 99057LG  16267.69205668 +.00000806 +00000-0 +11778-3 0  9994
2 26650 098.5554 330.4218 0010676 326.2956 163.7998 14.78709183870715
Source of the keplerian elements: AFSPC

N2YO: 475